• In Uzbekistan
  • List of Countries
  • For 7 days
  • Water Temperature
  • Satellite Maps
  • Weather Map
  • Weather Widgets
  • user-avatar
    Login

    Hourly Weather Kaprun

    Today, 23 April, Sunday

    Time Temperature Precipitation Wind Pressure Humidity
    00:00 -5°C° 0.9 mm 2 mps 595 mmHg 97%
    01:00 -5°C° 0 mm 2 mps 595 mmHg 96%
    02:00 -5°C° 0.7 mm 2 mps 595 mmHg 96%
    03:00 -6°C° 0.7 mm 2 mps 595 mmHg 96%
    04:00 -6°C° 0.7 mm 2 mps 595 mmHg 96%
    05:00 -6°C° 0.5 mm 2 mps 595 mmHg 95%
    06:00 -6°C° 0.5 mm 2 mps 595 mmHg 94%
    07:00 -5°C° 0 mm 2 mps 595 mmHg 92%
    08:00 -5°C° 0.2 mm 2 mps 596 mmHg 89%
    09:00 -4°C° 0.2 mm 2 mps 596 mmHg 87%
    10:00 -3°C° 0.2 mm 2 mps 596 mmHg 84%
    11:00 -2°C° 0.1 mm 2 mps 597 mmHg 84%
    12:00 -2°C° 0.1 mm 2 mps 597 mmHg 84%
    13:00 -1°C° 0.1 mm 2 mps 597 mmHg 83%
    14:00 -1°C° 0.1 mm 2 mps 597 mmHg 84%
    15:00 -2°C° 0.1 mm 2 mps 597 mmHg 85%
    16:00 -2°C° 0.1 mm 2 mps 597 mmHg 85%
    17:00 -3°C° 0.1 mm 2 mps 596 mmHg 89%
    18:00 -2°C° 0.1 mm 1 mps 596 mmHg 92%
    19:00 -3°C° 0.1 mm 1 mps 596 mmHg 96%
    20:00 -4°C° 0 mm 1 mps 596 mmHg 96%
    21:00 -6°C° 0 mm 1 mps 596 mmHg 97%
    22:00 -7°C° 0 mm 1 mps 596 mmHg 97%
    23:00 -8°C° 0 mm 1 mps 595 mmHg 97%

    Tomorrow, 24 April, Monday

    Time Temperature Precipitation Wind Pressure Humidity
    00:00 -9°C° 0 mm 1 mps 594 mmHg 97%
    01:00 -11°C° 0 mm 0 mps 593 mmHg 96%
    02:00 -11°C° 0 mm 1 mps 593 mmHg 95%
    03:00 -11°C° 0 mm 1 mps 593 mmHg 93%
    04:00 -11°C° 0 mm 1 mps 592 mmHg 91%
    05:00 -8°C° 0 mm 1 mps 594 mmHg 89%
    06:00 -6°C° 0 mm 1 mps 595 mmHg 87%
    07:00 -2°C° 0 mm 1 mps 596 mmHg 85%
    08:00 -1°C° 0 mm 1 mps 596 mmHg 84%
    09:00 +1°C° 0 mm 1 mps 597 mmHg 84%
    10:00 +2°C° 0 mm 1 mps 597 mmHg 83%
    11:00 +3°C° 0 mm 1 mps 597 mmHg 82%
    12:00 +4°C° 0 mm 1 mps 597 mmHg 81%
    13:00 +3°C° 0 mm 2 mps 597 mmHg 80%
    14:00 +3°C° 0.1 mm 2 mps 596 mmHg 82%
    15:00 +3°C° 0.1 mm 2 mps 596 mmHg 83%
    16:00 +3°C° 0.1 mm 2 mps 596 mmHg 84%
    17:00 +2°C° 0.1 mm 2 mps 595 mmHg 88%
    18:00 -1°C° 0.1 mm 2 mps 594 mmHg 92%
    19:00 0°C° 0.1 mm 1 mps 593 mmHg 96%
    20:00 -2°C° 0 mm 2 mps 593 mmHg 96%
    21:00 -2°C° 0 mm 2 mps 593 mmHg 96%
    22:00 -2°C° 0 mm 2 mps 594 mmHg 95%
    23:00 -3°C° 0 mm 2 mps 593 mmHg 95%

    Day after tomorrow, 25 April, Tuesday

    Time Temperature Precipitation Wind Pressure Humidity
    00:00 -3°C° 0 mm 2 mps 593 mmHg 95%
    01:00 -4°C° 0 mm 3 mps 593 mmHg 95%
    02:00 -4°C° 0 mm 3 mps 592 mmHg 95%
    03:00 -4°C° 0 mm 3 mps 592 mmHg 95%
    04:00 -3°C° 0 mm 2 mps 591 mmHg 95%
    05:00 -4°C° 0 mm 3 mps 591 mmHg 94%
    06:00 -2°C° 0 mm 3 mps 591 mmHg 93%
    07:00 -1°C° 0 mm 3 mps 591 mmHg 92%
    08:00 +1°C° 0.1 mm 2 mps 592 mmHg 89%
    09:00 +2°C° 0.1 mm 2 mps 592 mmHg 86%
    10:00 +3°C° 0.1 mm 2 mps 592 mmHg 82%
    11:00 +4°C° 0.2 mm 2 mps 592 mmHg 82%
    12:00 +4°C° 0.2 mm 2 mps 592 mmHg 82%
    13:00 +5°C° 0.2 mm 2 mps 592 mmHg 82%
    14:00 +3°C° 0.6 mm 3 mps 591 mmHg 84%
    15:00 +3°C° 0.6 mm 3 mps 591 mmHg 86%
    16:00 +3°C° 0.6 mm 3 mps 590 mmHg 88%
    17:00 +1°C° 1 mm 3 mps 590 mmHg 91%
    18:00 0°C° 1 mm 3 mps 590 mmHg 95%
    19:00 -1°C° 1 mm 2 mps 590 mmHg 98%
    20:00 -1°C° 1.6 mm 2 mps 590 mmHg 98%
    21:00 -1°C° 1.6 mm 2 mps 590 mmHg 98%
    22:00 -1°C° 1.6 mm 2 mps 590 mmHg 99%
    23:00 -2°C° 1.4 mm 2 mps 590 mmHg 99%

    26 April, Wednesday

    Time Temperature Precipitation Wind Pressure Humidity
    00:00 -2°C° 1.4 mm 3 mps 590 mmHg 99%
    01:00 -2°C° 1.4 mm 3 mps 589 mmHg 99%
    02:00 -2°C° 1.4 mm 3 mps 589 mmHg 99%
    03:00 -3°C° 1.4 mm 2 mps 589 mmHg 99%
    04:00 -3°C° 1.4 mm 2 mps 589 mmHg 99%
    05:00 -4°C° 1.7 mm 2 mps 589 mmHg 99%
    06:00 -4°C° 1.7 mm 2 mps 589 mmHg 99%
    07:00 -2°C° 1.7 mm 1 mps 589 mmHg 99%
    08:00 -4°C° 2.1 mm 2 mps 589 mmHg 99%
    09:00 -4°C° 2.1 mm 2 mps 589 mmHg 99%
    10:00 -4°C° 2.1 mm 2 mps 589 mmHg 99%
    11:00 -4°C° 2.2 mm 2 mps 588 mmHg 99%
    12:00 -4°C° 2.2 mm 2 mps 588 mmHg 99%
    13:00 -4°C° 2.2 mm 2 mps 588 mmHg 99%
    14:00 -5°C° 2.2 mm 2 mps 588 mmHg 99%
    15:00 -5°C° 2.2 mm 2 mps 588 mmHg 99%
    16:00 -6°C° 2.2 mm 2 mps 588 mmHg 98%
    17:00 -6°C° 1 mm 2 mps 588 mmHg 98%
    18:00 -6°C° 1 mm 2 mps 588 mmHg 99%
    19:00 -6°C° 1 mm 2 mps 588 mmHg 99%
    20:00 -6°C° 0.7 mm 2 mps 588 mmHg 98%
    21:00 -6°C° 0.7 mm 1 mps 588 mmHg 98%
    22:00 -6°C° 0.7 mm 1 mps 588 mmHg 98%
    23:00 -6°C° 0.6 mm 1 mps 587 mmHg 98%

    27 April, Thursday

    Time Temperature Precipitation Wind Pressure Humidity
    00:00 -6°C° 0.6 mm 1 mps 587 mmHg 99%
    01:00 -6°C° 0.6 mm 1 mps 587 mmHg 99%
    02:00 -6°C° 0.5 mm 1 mps 587 mmHg 99%
    03:00 -7°C° 0.5 mm 1 mps 587 mmHg 99%
    04:00 -7°C° 0.5 mm 1 mps 587 mmHg 99%
    05:00 -6°C° 0.9 mm 1 mps 587 mmHg 99%
    06:00 -6°C° 0.9 mm 1 mps 587 mmHg 99%
    07:00 -4°C° 0.9 mm 1 mps 588 mmHg 98%
    08:00 -4°C° 1.1 mm 1 mps 588 mmHg 98%
    09:00 -6°C° 1.1 mm 2 mps 588 mmHg 98%
    10:00 -5°C° 1.1 mm 2 mps 588 mmHg 98%
    11:00 -5°C° 1 mm 2 mps 588 mmHg 98%
    12:00 -5°C° 1 mm 2 mps 588 mmHg 98%
    13:00 -5°C° 1 mm 2 mps 588 mmHg 98%
    14:00 -5°C° 0.9 mm 2 mps 588 mmHg 97%
    15:00 -6°C° 0.9 mm 2 mps 588 mmHg 97%
    16:00 -6°C° 0.9 mm 2 mps 588 mmHg 97%
    17:00 -6°C° 0.6 mm 2 mps 588 mmHg 98%
    18:00 -7°C° 0.6 mm 2 mps 588 mmHg 98%
    19:00 -8°C° 0.6 mm 2 mps 588 mmHg 98%
    20:00 -8°C° 0.6 mm 2 mps 588 mmHg 98%
    21:00 -7°C° 0.6 mm 1 mps 588 mmHg 98%
    22:00 -8°C° 0.6 mm 1 mps 588 mmHg 98%
    23:00 -8°C° 0.6 mm 1 mps 588 mmHg 98%

    28 April, Friday

    Time Temperature Precipitation Wind Pressure Humidity
    00:00 -8°C° 0.6 mm 1 mps 588 mmHg 98%
    01:00 -8°C° 0.6 mm 1 mps 589 mmHg 98%
    02:00 -8°C° 0.6 mm 1 mps 589 mmHg 98%
    03:00 -8°C° 0.6 mm 1 mps 589 mmHg 98%
    04:00 -8°C° 0.6 mm 1 mps 589 mmHg 98%
    05:00 -8°C° 0.7 mm 2 mps 589 mmHg 98%
    06:00 -8°C° 0.7 mm 2 mps 589 mmHg 98%
    07:00 -7°C° 0.7 mm 2 mps 590 mmHg 98%
    08:00 -7°C° 1.1 mm 2 mps 590 mmHg 98%
    09:00 -7°C° 1.1 mm 2 mps 590 mmHg 98%
    10:00 -8°C° 1.1 mm 3 mps 591 mmHg 98%
    11:00 -7°C° 1.1 mm 3 mps 591 mmHg 98%
    12:00 -7°C° 1.1 mm 3 mps 591 mmHg 98%
    13:00 -7°C° 1.1 mm 3 mps 591 mmHg 98%
    14:00 -7°C° 0.8 mm 3 mps 592 mmHg 98%
    15:00 -7°C° 0.8 mm 3 mps 592 mmHg 98%
    16:00 -7°C° 0.8 mm 3 mps 592 mmHg 97%
    17:00 -7°C° 0.4 mm 3 mps 592 mmHg 97%
    18:00 -7°C° 0.4 mm 2 mps 592 mmHg 97%
    19:00 -7°C° 0.4 mm 2 mps 592 mmHg 98%
    20:00 -8°C° 0.2 mm 2 mps 593 mmHg 98%
    21:00 -9°C° 0.2 mm 2 mps 593 mmHg 98%
    22:00 -9°C° 0.2 mm 2 mps 593 mmHg 98%
    23:00 -10°C° 0.1 mm 2 mps 593 mmHg 97%
    Show more